Weather in Kharp

Russia / Yamalo-Nenets Autonomous Okrug     66°48′53″N   65°47′57″E
temp.,
°C
wind,
m/s
gust,
m/s
humid.,
%
clouds,
%
prec.,
mm/h
press.,
hPa
HPBL,
m
27 february, sat
sat2723:00−25sw0110074 0.0 102020
02:00−26wsw1110053 0.0 102020
05:00−27sw1110056 0.0 102120
08:00−28wsw1110063 0.0 102019
11:00−24sw129960 0.0 102154
14:00−23sw229881 0.0 1021139
17:00−26sw1210070 0.0 102119
20:00−28wsw1110083 0.0 102019
28 february, sun
sun2823:00−28wsw1110091 0.1 102019
02:00−28sw11100100 0.0 101919
05:00−29sw12100100 0.1 101920
08:00−30sw11100100 0.0 101920
11:00−27ssw12100100 0.1 101883
14:00−26ssw239998 0.0 1019177
17:00−29wsw1210097 0.1 101921
20:00−30wsw12100100 0.0 101819
1 march, mon
mon123:00−29wsw12100100 0.1 101820
02:00−29wsw22100100 0.1 101721
05:00−30wsw2210099 0.1 101619
08:00−31sw2210090 0.0 101519
11:00−28sw239885 0.0 1014131
14:00−27sw249977 0.0 1011225
17:00−29w2210088 0.1 101020
20:00−29wsw11100100 0.1 100723
2 march, tue
tue223:00−27ssw01100100 0.1 100529
02:00−25s1199100 0.1 100337
05:00−23s11100100 0.3 100257
08:00−20s27100100 0.5 1001386
11:00−18s5797100 1.3 1001503
14:00−17s4797100 0.9 1000473
17:00−18s3698100 1.7 1000450
20:00−18s2698100 0.7 1000287
3 march, wed
wed323:00−17s2498100 1.4 1000148
02:00−16s3897100 0.6 1000331
05:00−16s3798100 1.3 1000314
08:00−17s2598100 0.5 1000158
11:00−16s3596100 0.9 1000406
14:00−15s3595100 0.4 1000448
17:00−15s2497100 0.8 1000164
20:00−16sse2298100 0.4 100037